Regional Weather Roundup
Issued by NWS Midland/Odessa, TX

Skip options and go directly to product.
Home | Oldest Version | Previous Version | Current Version | All | Text Only | Save Text | Print | Product List | Glossary On

Skip product version selection by date and time.   
128
ASUS44 KMAF 061910
RWRMAF
MIDLAND AREA WEATHER ROUNDUP
NATIONAL WEATHER SERVICE MIDLAND TX
200 PM CDT MON JUL 06 2015

...IN SOUTHWEST TEXAS AND SOUTHEAST NEW MEXICO...

CITY           SKY/WX    TMP DP  RH WIND       PRES   REMARKS
ALPINE         CLOUDY    87  60  39 SW9G18    30.15F
ANDREWS        FAIR      95  61  32 W6        29.97F
ARTESIA        SUNNY     93  59  31 VRB5G12   29.97F
BIG SPRING     SUNNY     94  65  37 S9G18     29.99F
CARLSBAD       MOSUNNY   99  58  25 S8        29.94F
DRYDEN           N/A     92  71  50 VRB7G20   29.97F
FORT STOCKTON  SUNNY     95  61  32 S3        29.98F
GUAD PASS      SUNNY     88  59  37 SW23G32   30.15F
HOBBS          MOSUNNY   93  55  27 SW9G16    30.00F
MARFA          PTSUNNY  N/A N/A N/A SW15      30.15F
MIDLAND AIRPK  MOSUNNY   94  61  34 W6        29.97F
MIDLAND INTL   MOSUNNY   92  67  43 S12       29.97F
ODESSA         MOSUNNY   94  60  32 S13       29.98F
PECOS          MOSUNNY   99  58  25 SW14G21   29.92F
PRESIDIO       FAIR      92  64  39 S7        30.00F
SEMINOLE       MOSUNNY   96  56  25 SW7       29.98F
SNYDER         SUNNY     90  71  52 S15       29.97F
WINK           MOSUNNY  101  58  24 W13G18    29.92F HX 100
$$
...OTHER STATIONS IN TEXAS...

CITY           SKY/WX    TMP DP  RH WIND       PRES   REMARKS
ABILENE        MOSUNNY   92  70  48 S17G29    29.97F
AMARILLO       SUNNY     89  67  47 N8        30.03F
AUSTIN         PTSUNNY   91  71  51 S17G29    30.01F
BROWNSVILLE    PTSUNNY   91  76  61 SE18G31   30.02F HX 103
CORPUS CHRISTI PTSUNNY   91  73  55 SE23G31   30.03F
DALLAS FTW     PTSUNNY   92  67  43 S26       29.97F
DEL RIO        SUNNY     90  70  51 SE14G22   29.94F
EL PASO        MOSUNNY   89  57  33 W8        30.05F
HOUSTON INT    PTSUNNY   92  72  51 S14G22    30.06F
LUBBOCK        PTSUNNY   94  65  38 S13G20    29.97F
SAN ANGELO     SUNNY     93  69  45 S16       29.96F
SAN ANTONIO    MOSUNNY   89  70  53 S20       30.03F
WACO           MOSUNNY   91  67  44 S24G32    30.01F
WICHITA FALLS  NOT AVBL
$$
...OTHER LOCATIONS IN NEW MEXICO...

CITY           SKY/WX    TMP DP  RH WIND       PRES   REMARKS
ALAMAGORDO     SUNNY     90  55  31 SW10G17   30.06F
ALBUQUERQUE    MOSUNNY   84  53  34 W8        30.15F
CANNON AFB     PTSUNNY   87  61  40 W3        30.02F
CLOVIS         PTSUNNY   90  61  37 E7          N/A
HOLLOMAN AFB   MOSUNNY   90  54  29 W8        30.04F
ROSWELL        SUNNY     95  56  26 E7        29.97F
RUIDOSO        MOSUNNY   75  54  46 N9G16     30.27S
SANTA FE       MOSUNNY   80  54  40 W6        30.19F
TRUTH OR CONSE MOSUNNY   90  51  26 NE8       30.11F
TUCUMCARI      PTSUNNY   88  59  37 NE13G23   30.05F
$$

USA.gov is the U.S. government's official web portal to all federal, state and local government web resources and services.